Погода в Арнавуткёе

Турция     41°10′55″N   28°44′25″E
темп.,
°C
ветер,
м/с
пор.,
м/с
влажн.,
%
обл.,
%
осадки,
мм/ч
давл.,
гПа
погр.,
м
20 апреля, вт
вт2000:00+11юз5109343 1.4 1009342
03:00+9ююз239815 1.8 100942
06:00+9юз38969 0.0 1009208
09:00+10з578952 0.0 1012449
12:00+13з697087 0.1 10131230
15:00+13зсз576972 0.2 10141037
18:00+11с557787 0.0 1014364
21:00+8св22912 0.0 101630
21 апреля, ср
ср2100:00+7юв12902 0.0 101720
03:00+7ю22880 0.0 101719
06:00+7ю22900 0.0 101724
09:00+12ююз45753 0.0 1018455
12:00+16юз33600 0.1 10181116
15:00+17з12553 0.3 10181327
18:00+15св116351 0.7 1018454
21:00+10всв1186100 1.3 101913
22 апреля, чт
чт2200:00+10ю1183100 0.4 102011
03:00+9зюз228684 0.4 102012
06:00+9ююз22885 0.0 102121
09:00+13ююз34752 0.0 1022342
12:00+16юз44620 0.0 10221000
15:00+18юз44550 0.0 10221136
18:00+17юз33564 0.0 1021582
21:00+12ю226599 0.0 102111
23 апреля, пт
пт2300:00+11ю2263100 0.0 102115
03:00+11ююз226298 0.0 102013
06:00+11ю2262100 0.0 101911
09:00+14ююз2262100 0.0 1019148
12:00+18зюз2351100 0.0 1019815
15:00+18з2354100 0.0 1019901
18:00+17юз346589 0.0 1019347
21:00+13зюз2268100 0.1 102012
24 апреля, сб
сб2400:00+12юз1169100 0.0 102010
03:00+11ссз227899 0.0 102024
06:00+11с41083100 0.0 1021338
09:00+12с5878100 0.0 1021339
12:00+13ссв6780100 0.0 1022523
15:00+12св6882100 0.0 1021502
18:00+11св6882100 0.0 1020448
21:00+10св5989100 0.0 1020403